LOG43YD EGPO-EGPF

Flight info

Callsign LOG43YD
Flight time N/A
Altitude 19000
Route STN DCT ORSUM DCT LOMON DCT GOW
Aircraft E145/M-SDFGIRW/S

Departure

Time 2026-04-19 14:28
Airport Stornoway Airport (EGPO)

Arrival

Time N/A
Airport Glasgow Airport (EGPF)
Time Latitude Longitude Altitude Speed Heading
2026-04-19 13:55 58.21434 -6.32134 32 ft 0 kts 264°
2026-04-19 14:20 58.21434 -6.32137 32 ft 0 kts 271°
2026-04-19 14:21 58.21439 -6.32148 32 ft 1 kts 329°
2026-04-19 14:21 58.21458 -6.32156 32 ft 3 kts 334°
2026-04-19 14:21 58.21465 -6.32211 32 ft 5 kts 267°
2026-04-19 14:21 58.21463 -6.32297 32 ft 7 kts 267°
2026-04-19 14:22 58.21444 -6.32402 32 ft 9 kts 233°
2026-04-19 14:22 58.21399 -6.32509 32 ft 11 kts 230°
2026-04-19 14:22 58.21326 -6.32583 32 ft 13 kts 178°
2026-04-19 14:22 58.21225 -6.32567 32 ft 15 kts 176°
2026-04-19 14:23 58.21111 -6.32551 32 ft 17 kts 175°
2026-04-19 14:23 58.20992 -6.32540 32 ft 14 kts 194°
2026-04-19 14:23 58.20934 -6.32696 32 ft 16 kts 263°
2026-04-19 14:23 58.20929 -6.32777 32 ft 0 kts 261°
2026-04-19 14:25 58.20928 -6.32785 32 ft 1 kts 261°
2026-04-19 14:25 58.20922 -6.32859 32 ft 8 kts 262°
2026-04-19 14:25 58.20882 -6.32980 32 ft 15 kts 185°
2026-04-19 14:25 58.20750 -6.32953 32 ft 22 kts 173°
2026-04-19 14:26 58.20624 -6.32913 32 ft 20 kts 162°
2026-04-19 14:26 58.20596 -6.32938 32 ft 5 kts 335°
2026-04-19 14:26 58.20641 -6.32934 32 ft 0 kts 352°
2026-04-19 14:27 58.20657 -6.32938 32 ft 16 kts 352°
2026-04-19 14:27 58.21053 -6.33012 32 ft 96 kts 353°
2026-04-19 14:27 58.21923 -6.33169 137 ft 142 kts 356°
2026-04-19 14:27 58.22941 -6.33136 591 ft 157 kts
2026-04-19 14:28 58.24027 -6.32842 1322 ft 166 kts 11°
2026-04-19 14:28 58.25189 -6.32088 1991 ft 186 kts 32°
2026-04-19 14:28 58.25817 -6.31010 2618 ft 191 kts 53°
2026-04-19 14:28 58.26033 -6.27759 3861 ft 202 kts 111°
2026-04-19 14:29 58.25171 -6.25766 4725 ft 199 kts 140°
2026-04-19 14:29 58.24133 -6.24056 5533 ft 198 kts 139°
2026-04-19 14:29 58.23443 -6.22909 5944 ft 207 kts 139°
2026-04-19 14:29 58.21806 -6.20178 6025 ft 262 kts 138°
2026-04-19 14:30 58.20853 -6.18645 6273 ft 278 kts 145°
2026-04-19 14:30 58.19111 -6.17055 7098 ft 282 kts 158°
2026-04-19 14:30 58.17331 -6.15637 8055 ft 282 kts 158°
2026-04-19 14:30 58.15518 -6.14198 8948 ft 286 kts 157°
2026-04-19 14:31 58.13088 -6.12269 10075 ft 290 kts 157°
2026-04-19 14:31 58.11827 -6.11266 10496 ft 294 kts 157°
2026-04-19 14:31 58.09911 -6.09748 10984 ft 306 kts 157°
2026-04-19 14:31 58.07257 -6.07649 11620 ft 319 kts 156°
2026-04-19 14:32 58.05886 -6.06567 11928 ft 326 kts 157°
2026-04-19 14:32 58.03755 -6.04888 12313 ft 337 kts 156°
2026-04-19 14:32 58.01555 -6.03155 12758 ft 346 kts 156°
2026-04-19 14:32 57.98584 -6.00819 13516 ft 351 kts 156°
2026-04-19 14:33 57.97087 -5.99643 13851 ft 355 kts 156°
2026-04-19 14:33 57.94809 -5.97856 14372 ft 359 kts 156°
2026-04-19 14:33 57.92517 -5.96061 14989 ft 360 kts 156°
2026-04-19 14:33 57.89411 -5.93632 15740 ft 364 kts 156°
2026-04-19 14:34 57.87869 -5.92428 16085 ft 366 kts 156°
2026-04-19 14:34 57.85488 -5.90570 16613 ft 369 kts 157°
2026-04-19 14:34 57.83118 -5.88725 17096 ft 373 kts 157°
2026-04-19 14:35 57.78337 -5.85009 18123 ft 377 kts 157°
2026-04-19 14:35 57.75927 -5.83141 18671 ft 377 kts 158°
2026-04-19 14:35 57.73509 -5.81270 19232 ft 378 kts 157°
2026-04-19 14:35 57.70208 -5.78718 19331 ft 398 kts 157°
2026-04-19 14:36 57.68486 -5.77389 19332 ft 408 kts 157°
2026-04-19 14:36 57.65827 -5.75339 19330 ft 421 kts 157°
2026-04-19 14:36 57.63106 -5.73245 19323 ft 428 kts 157°
2026-04-19 14:36 57.60355 -5.71131 19316 ft 431 kts 157°
2026-04-19 14:37 57.57585 -5.69007 19314 ft 433 kts 157°
2026-04-19 14:37 57.54775 -5.66854 19308 ft 436 kts 157°
2026-04-19 14:37 57.51993 -5.64727 19306 ft 438 kts 157°
2026-04-19 14:37 57.49164 -5.62567 19306 ft 439 kts 157°
2026-04-19 14:38 57.46352 -5.60425 19306 ft 441 kts 157°
2026-04-19 14:38 57.43522 -5.58272 19313 ft 442 kts 157°
2026-04-19 14:38 57.40649 -5.56091 19316 ft 443 kts 157°
2026-04-19 14:38 57.37803 -5.53933 19321 ft 444 kts 157°
2026-04-19 14:39 57.34968 -5.51786 19325 ft 445 kts 157°
2026-04-19 14:39 57.32089 -5.49611 19324 ft 446 kts 157°
2026-04-19 14:39 57.29240 -5.47462 19333 ft 447 kts 157°
2026-04-19 14:39 57.26337 -5.45276 19333 ft 448 kts 158°
2026-04-19 14:40 57.23469 -5.43120 19330 ft 449 kts 157°
2026-04-19 14:40 57.20586 -5.40956 19329 ft 449 kts 158°
2026-04-19 14:40 57.17701 -5.38795 19325 ft 450 kts 157°
2026-04-19 14:40 57.14816 -5.36637 19315 ft 451 kts 158°
2026-04-19 14:41 57.11899 -5.34459 19304 ft 452 kts 158°
2026-04-19 14:41 57.08984 -5.32286 19302 ft 452 kts 158°
2026-04-19 14:41 57.06057 -5.30107 19295 ft 453 kts 158°
2026-04-19 14:41 57.02184 -5.27230 19290 ft 453 kts 158°
2026-04-19 14:42 57.00237 -5.25788 19292 ft 454 kts 158°
2026-04-19 14:42 56.97333 -5.23638 19288 ft 451 kts 158°
2026-04-19 14:42 56.94453 -5.21509 19287 ft 444 kts 158°
2026-04-19 14:42 56.91627 -5.19424 19289 ft 438 kts 158°
2026-04-19 14:43 56.88818 -5.17354 19286 ft 433 kts 158°
2026-04-19 14:43 56.86076 -5.15337 18891 ft 423 kts 158°
2026-04-19 14:43 56.83375 -5.13354 18566 ft 402 kts 158°
2026-04-19 14:43 56.80873 -5.11518 18313 ft 384 kts 158°
2026-04-19 14:44 56.78399 -5.09707 17709 ft 378 kts 158°
2026-04-19 14:44 56.76009 -5.07960 17045 ft 375 kts 158°
2026-04-19 14:44 56.73609 -5.06208 16397 ft 371 kts 158°
2026-04-19 14:44 56.71240 -5.04480 15800 ft 365 kts 158°
2026-04-19 14:45 56.68887 -5.02766 15204 ft 360 kts 158°
2026-04-19 14:45 56.66584 -5.01092 14598 ft 355 kts 158°
2026-04-19 14:45 56.64333 -4.99458 13954 ft 353 kts 158°
2026-04-19 14:45 56.62070 -4.97815 13393 ft 347 kts 158°
2026-04-19 14:46 56.59843 -4.96202 12826 ft 342 kts 158°
2026-04-19 14:46 56.57658 -4.94621 12299 ft 337 kts 158°
2026-04-19 14:46 56.55508 -4.93068 11804 ft 331 kts 158°
2026-04-19 14:46 56.53404 -4.91549 11365 ft 324 kts 158°
2026-04-19 14:47 56.51341 -4.90062 10981 ft 316 kts 158°
2026-04-19 14:47 56.49343 -4.88624 10647 ft 307 kts 158°
2026-04-19 14:47 56.47395 -4.87223 10353 ft 298 kts 158°
2026-04-19 14:47 56.45482 -4.85848 10087 ft 290 kts 158°
2026-04-19 14:48 56.43635 -4.84523 9824 ft 282 kts 158°
2026-04-19 14:48 56.41861 -4.83251 9570 ft 275 kts 158°
2026-04-19 14:48 56.40092 -4.81984 9309 ft 270 kts 158°
2026-04-19 14:48 56.38376 -4.80756 9048 ft 264 kts 158°
2026-04-19 14:49 56.36681 -4.79545 8789 ft 260 kts 158°
2026-04-19 14:49 56.35014 -4.78354 8531 ft 256 kts 158°
2026-04-19 14:49 56.33373 -4.77184 8273 ft 252 kts 158°
2026-04-19 14:49 56.31750 -4.76027 8016 ft 249 kts 158°
2026-04-19 14:50 56.30151 -4.74887 7759 ft 247 kts 157°
2026-04-19 14:50 56.28567 -4.73760 7501 ft 244 kts 157°
2026-04-19 14:50 56.26998 -4.72644 7242 ft 242 kts 157°
2026-04-19 14:50 56.25429 -4.71530 6991 ft 244 kts 157°
2026-04-19 14:51 56.23845 -4.70406 6756 ft 250 kts 157°
2026-04-19 14:51 56.22201 -4.69239 6518 ft 257 kts 156°
2026-04-19 14:51 56.20540 -4.68064 6269 ft 263 kts 156°
2026-04-19 14:51 56.18806 -4.66835 6022 ft 268 kts 157°
2026-04-19 14:52 56.17059 -4.65601 5770 ft 272 kts 156°
2026-04-19 14:52 56.15309 -4.64365 5524 ft 271 kts 157°
2026-04-19 14:52 56.13591 -4.63153 5266 ft 264 kts 157°
2026-04-19 14:52 56.11898 -4.61960 5009 ft 258 kts 158°
2026-04-19 14:53 56.10250 -4.60799 4825 ft 250 kts 157°
2026-04-19 14:53 56.08658 -4.59679 4666 ft 242 kts 157°
2026-04-19 14:53 56.07143 -4.58470 4499 ft 234 kts 143°
2026-04-19 14:53 56.06177 -4.56295 4363 ft 221 kts 107°
2026-04-19 14:54 56.05824 -4.53699 4261 ft 208 kts 99°
2026-04-19 14:54 56.05537 -4.51240 4119 ft 198 kts 98°
2026-04-19 14:54 56.05273 -4.48871 3963 ft 190 kts 98°
2026-04-19 14:54 56.05022 -4.46591 3674 ft 190 kts 97°
2026-04-19 14:55 56.04767 -4.44255 3350 ft 192 kts 97°
2026-04-19 14:55 56.04512 -4.41936 3087 ft 190 kts 98°
2026-04-19 14:55 56.04256 -4.39618 2860 ft 185 kts 98°
2026-04-19 14:55 56.04012 -4.37407 2845 ft 183 kts 98°
2026-04-19 14:56 56.03765 -4.35165 2850 ft 186 kts 98°
2026-04-19 14:56 56.03509 -4.32849 2855 ft 190 kts 99°
2026-04-19 14:56 56.03251 -4.30520 2855 ft 194 kts 99°
2026-04-19 14:56 56.02984 -4.28115 2845 ft 199 kts 99°
2026-04-19 14:57 56.02713 -4.25670 2830 ft 201 kts 99°
2026-04-19 14:57 56.02443 -4.23252 2822 ft 193 kts 99°
2026-04-19 14:57 56.02163 -4.20974 2802 ft 187 kts 109°
2026-04-19 14:57 56.01343 -4.19267 2814 ft 180 kts 155°
2026-04-19 14:58 56.00178 -4.19083 2835 ft 167 kts 204°
2026-04-19 14:58 55.99386 -4.20378 2841 ft 151 kts 255°
2026-04-19 14:58 55.99394 -4.22144 2842 ft 141 kts 289°
2026-04-19 14:58 55.99485 -4.23929 2827 ft 153 kts 255°
2026-04-19 14:59 55.98777 -4.25409 2848 ft 168 kts 210°
2026-04-19 14:59 55.97638 -4.26138 2849 ft 182 kts 197°
2026-04-19 14:59 55.96419 -4.26971 2842 ft 193 kts 209°
2026-04-19 14:59 55.95255 -4.28247 2828 ft 198 kts 225°
2026-04-19 15:00 55.94321 -4.29995 2831 ft 191 kts 230°
2026-04-19 15:00 55.93475 -4.31600 2848 ft 170 kts 230°
2026-04-19 15:00 55.92681 -4.33086 2556 ft 164 kts 230°
2026-04-19 15:00 55.91898 -4.34545 1984 ft 163 kts 230°
2026-04-19 15:01 55.91121 -4.35991 1314 ft 166 kts 230°
2026-04-19 15:01 55.90313 -4.37497 735 ft 177 kts 230°
2026-04-19 15:01 55.89502 -4.39011 418 ft 160 kts 230°
2026-04-19 15:01 55.88771 -4.40353 253 ft 142 kts 229°